Notices

What's New in latest Release from April 7th, 2021:

- Updated Glossary, including Speed of Maximum Gust, and Total Hourly Precipitation

- Updated national and regional climate services offices contacts and prices information

- Addition of station inventory lists for 1981-2010, 1971-2000, and 1961-1990 Normals.

If you haven't already, please take our survey and provide feedback about our website: https://eccc.sondage-survey.ca/f/LanguageSelection.aspx?s=442ca660-fcf1-47c0-95a9-59707d6fd709

Hourly Data Report for March 28, 2010

HALIFAX STANFIELD INT'L A
NOVA SCOTIA

44°52'48.060" N
63°30'00.050" W
145.40 m
8202250
71395
YHZ

Download Data

Hourly Data (March 2010)
Hourly Data Report for March 28, 2010
TIME
LST
Temp Definition
°C
Dew Point Definition
°C
Rel Hum Definition
%
Precip. Amount Definition
mm

Wind Dir Definition
10's deg

Wind Spd Definition
km/h
Visibility Definition
km
Stn Press Definition
kPa
Hmdx Definition


Wind Chill Definition


Weather Definition


00:00 -10.6 -13.1 82   35 4 24.1 101.29   -13 Clear
01:00 -10.6 -13.4 80   32 9 24.1 101.35   -16 Clear
02:00 -10.8 -13.2 82   29 6 24.1 101.38   -14 Clear
03:00 -11.0 -13.2 84   34 4 24.1 101.37   -13 Clear
04:00 -9.7 -13.6 73   33 6 24.1 101.42   -13 Clear
05:00 -9.7 -11.7 85   35 6 24.1 101.47   -13 Clear
06:00 -10.0 -12.7 81   36 6 24.1 101.52   -14 Clear
07:00 -8.7 -13.0 71     0 24.1 101.56     Clear
08:00 -6.4 -13.4 58     0 24.1 101.63     Mainly Clear
09:00 -4.2 -12.9 51   11 9 24.1 101.60   -8 Mainly Clear
10:00 -2.2 -14.5 38   11 4 24.1 101.64   -4 Clear
11:00 -2.1 -14.4 38   11 13 24.1 101.61   -7 Mainly Clear
12:00 -0.5 -12.9 39   22 7 24.1 101.56   -3 Mostly Cloudy
13:00 0.1 -10.9 43   21 9 24.1 101.51     Mostly Cloudy
14:00 0.9 -10.7 42   20 15 24.1 101.50     Mostly Cloudy
15:00 -0.1 -11.5 42   17 20 24.1 101.50   -5 Cloudy
16:00 -0.6 -10.9 46   16 22 24.1 101.47   -6 Mostly Cloudy
17:00 -1.9 -10.2 53   17 22 24.1 101.47   -8 Mostly Cloudy
18:00 -2.6 -9.8 58   17 22 24.1 101.45   -9 Mostly Cloudy
19:00 -3.6 -8.8 67   17 17 24.1 101.38   -9 Mostly Cloudy
20:00 -3.8 -8.0 73   17 15 24.1 101.38   -9 Mainly Clear
21:00 -3.8 -7.4 76   16 17 24.1 101.34   -10 Mainly Clear
22:00 -3.8 -6.8 80   16 19 24.1 101.33   -10 Cloudy
23:00 -3.4 -6.5 79   16 17 24.1 101.30   -9 Cloudy

Notes on Data Quality.

Legend

  • E = Estimated
  • M = Missing
  • NA = Not Available*
  • [empty] = Indicates an unobserved value
Date modified: